User: anonymous   Login
Location: Fort Wayne
(41.1310°N, 85.1290°W)
Time: 05:33:59
(UTC-05:00)
Language:

Cosmos 2219 Rocket - Orbit

View from above orbital plane
View from above orbital plane
View from above satellite
View from above satellite

Ground track
Ground track

The orbit data is extracted from the following two-line orbital elements,

1 22220U 92076B   14355.54502118  .00000194  00000-0  12179-3 0  4842
2 22220 070.9997 171.7816 0014175 225.6189 189.6250 14.16343249142110
Epoch (UTC): 21 December 2014 13:04:49
Eccentricity: 0.0014175
inclination: 70.9997°
perigee height: 827 km
apogee height: 848 km
right ascension of ascending node: 171.7816°
argument of perigee: 225.6189°
revolutions per day: 14.16343249
mean anomaly at epoch: 189.6250°
orbit number at epoch: 14211

The dashed part of the orbit path shows where the satellite is in the earth's shadow,  

DLR